EW8037 Weather Reports


Display with metric or nautical units.
time (UTC)temp
F
wind
direction
speed
MPH
gust
MPH
rain 1hr
in
rain 24hr
in
rain mn
in
humidity
%
barometer
mb
20260509173516 67 90 1.0 4.0 0.00 0.00 0.00 57 1010.2
20260509172516 66 23 2.0 4.0 0.00 0.00 0.00 57 1010.4
20260509171517 66 23 1.0 2.0 0.00 0.00 0.00 59 1010.5
20260509170516 66 0.0 2.0 0.00 0.00 0.00 60 1010.6
20260509165616 66 0 1.0 3.0 0.00 0.00 0.00 57 1010.7
20260509164516 67 293 1.0 3.0 0.00 0.00 0.00 55 1010.5
20260509163516 67 23 2.0 5.0 0.00 0.00 0.00 58 1010.4
20260509162516 67 45 1.0 3.0 0.00 0.00 0.00 58 1010.2
20260509161516 67 293 1.0 2.0 0.00 0.00 0.00 56 1010.3
20260509160516 67 23 2.0 5.0 0.00 0.00 0.00 56 1010.6
20260509155516 67 0 1.0 4.0 0.00 0.00 0.00 56 1010.6
20260509154536 66 45 1.0 3.0 0.00 0.00 0.00 59 1010.6
20260509153516 66 45 1.0 4.0 0.00 0.00 0.00 59 1010.6
20260509152515 66 23 2.0 4.0 0.00 0.00 0.00 56 1010.8
20260509151556 65 203 1.0 3.0 0.00 0.00 0.00 57 1010.7
20260509150515 65 68 1.0 2.0 0.00 0.00 0.00 61 1010.8
20260509145515 64 0 2.0 4.0 0.00 0.00 0.00 56 1011.0
20260509144536 63 23 1.0 3.0 0.00 0.00 0.00 59 1011.0
20260509143516 62 203 1.0 2.0 0.00 0.00 0.00 63 1011.0
20260509142516 61 0.0 2.0 0.00 0.00 0.00 66 1011.1
20260509141516 61 180 1.0 2.0 0.00 0.00 0.00 65 1011.3
20260509140515 61 0.0 2.0 0.00 0.00 0.00 70 1011.1
20260509135516 60 0.0 0.0 0.00 0.00 0.00 70 1010.8
20260509134515 60 0.0 1.0 0.00 0.00 0.00 72 1010.8
20260509133516 60 0.0 1.0 0.00 0.00 0.00 67 1010.6
20260509132555 59 0.0 2.0 0.00 0.00 0.00 68 1010.8
20260509131515 59 158 1.0 2.0 0.00 0.00 0.00 75 1011.0
20260509130515 59 0.0 1.0 0.00 0.00 0.00 77 1010.9
20260509125515 58 0.0 1.0 0.00 0.00 0.00 76 1010.9
20260509124515 58 0.0 2.0 0.00 0.00 0.00 77 1010.9
20260509123515 57 0.0 1.0 0.00 0.00 0.00 78 1010.8
20260509122517 57 0.0 2.0 0.00 0.00 0.00 80 1010.9
20260509121519 56 0.0 1.0 0.00 0.00 0.00 76 1010.9
20260509120519 56 0.0 0.0 0.00 0.00 0.00 77 1010.9
20260509115538 55 0.0 0.0 0.00 0.00 0.00 78 1010.9
20260509114518 55 0.0 2.0 0.00 0.00 0.00 80 1010.9
20260509113518 54 0.0 1.0 0.00 0.00 0.00 80 1010.7
20260509112538 54 135 1.0 2.0 0.00 0.00 0.00 81 1010.6
20260509111518 54 0.0 2.0 0.00 0.00 0.00 79 1010.7
20260509110518 54 0.0 0.0 0.00 0.00 0.00 79 1010.7
20260509105537 54 0.0 0.0 0.00 0.00 0.00 78 1010.6
20260509104517 54 0.0 0.0 0.00 0.00 0.00 75 1010.5
20260509103517 54 0.0 0.0 0.00 0.00 0.00 75 1010.4
20260509102518 54 0.0 0.0 0.00 0.00 0.00 72 1010.3
20260509101537 54 0.0 0.0 0.00 0.00 0.00 72 1010.5
20260509100517 54 0.0 0.0 0.00 0.00 0.00 71 1010.4
20260509095517 54 0.0 0.0 0.00 0.00 0.00 71 1010.3
20260509094517 54 0.0 0.0 0.00 0.00 0.00 70 1010.3
20260509093517 54 0.0 0.0 0.00 0.00 0.00 71 1010.3
20260509092517 54 0.0 0.0 0.00 0.00 0.00 71 1010.2
20260509091517 53 0.0 0.0 0.00 0.00 0.00 71 1010.3
20260509090517 53 0.0 0.0 0.00 0.00 0.00 71 1010.4
20260509085517 53 0.0 1.0 0.00 0.00 0.00 72 1010.3
20260509084537 53 0.0 1.0 0.00 0.00 0.00 73 1010.4
20260509083518 53 0.0 0.0 0.00 0.00 0.00 74 1010.5
20260509082518 53 0.0 0.0 0.00 0.00 0.00 75 1010.6
20260509081517 53 0.0 1.0 0.00 0.00 0.00 77 1010.6
20260509080517 52 135 1.0 3.0 0.00 0.00 0.00 79 1010.5
20260509075517 52 0.0 2.0 0.00 0.00 0.00 81 1010.5
20260509074518 52 0.0 1.0 0.00 0.00 0.00 83 1010.5
20260509073517 52 0.0 1.0 0.00 0.00 0.00 83 1010.5
20260509072517 52 315 1.0 3.0 0.00 0.00 0.00 83 1010.5
20260509071517 52 135 1.0 2.0 0.00 0.00 0.00 82 1010.6
20260509070517 52 0.0 0.0 0.00 0.00 0.00 84 1010.6
20260509065517 52 0.0 0.0 0.00 0.00 0.00 83 1010.7
20260509064517 52 0.0 0.0 0.00 0.00 0.00 82 1010.7
20260509063537 52 0.0 0.0 0.00 0.00 0.00 81 1010.8
20260509062517 52 0.0 0.0 0.00 0.00 0.00 81 1010.9
20260509061538 52 0.0 0.0 0.00 0.00 0.00 81 1011.0
20260509060517 52 0.0 0.0 0.00 0.00 0.00 80 1011.1
20260509055517 52 0.0 0.0 0.00 0.00 0.00 81 1011.0
20260509054517 52 0.0 0.0 0.00 0.00 0.00 81 1011.1
20260509053517 52 0.0 0.0 0.00 0.00 0.00 80 1011.2
20260509052517 52 0.0 0.0 0.00 0.00 0.00 81 1011.2
20260509051517 51 0.0 0.0 0.00 0.00 0.00 79 1011.2
20260509050516 51 0.0 0.0 0.00 0.00 0.00 78 1011.2
20260509045518 51 0.0 0.0 0.00 0.00 0.00 76 1011.2
20260509044517 51 0.0 0.0 0.00 0.00 0.00 74 1011.3
20260509043517 51 0.0 0.0 0.00 0.00 0.00 72 1011.3
20260509042537 51 0.0 0.0 0.00 0.00 0.00 72 1011.3
20260509041516 52 0.0 0.0 0.00 0.00 0.00 73 1011.3
20260509040517 52 0.0 0.0 0.00 0.00 0.00 72 1011.3
20260509035517 53 0.0 0.0 0.00 0.00 0.00 71 1011.5
20260509034516 53 0.0 0.0 0.00 0.00 0.00 69 1011.3
20260509033517 54 0.0 0.0 0.00 0.00 0.00 72 1011.4
20260509032516 54 0.0 0.0 0.00 0.00 0.00 69 1011.4
20260509031517 55 0.0 0.0 0.00 0.00 0.00 66 1011.4
20260509030517 55 0.0 0.0 0.00 0.00 0.00 66 1011.4
20260509025517 56 0.0 0.0 0.00 0.00 0.00 64 1011.6
20260509024517 57 0.0 0.0 0.00 0.00 0.00 63 1011.7
20260509023516 57 0.0 0.0 0.00 0.00 0.00 64 1011.8
20260509022516 58 0.0 0.0 0.00 0.00 0.00 56 1011.6
20260509021517 58 0.0 0.0 0.00 0.00 0.00 56 1011.6
20260509020517 59 0.0 0.0 0.00 0.00 0.00 54 1011.6
20260509015516 59 0.0 0.0 0.00 0.00 0.00 54 1011.6
20260509014517 59 0.0 0.0 0.00 0.00 0.00 54 1011.6
20260509013536 60 0.0 0.0 0.00 0.00 0.00 55 1011.7
20260509012537 60 0.0 0.0 0.00 0.00 0.00 55 1011.5
20260509011516 61 0.0 0.0 0.00 0.00 0.00 54 1011.4
20260509010516 62 0.0 0.0 0.00 0.00 0.00 58 1011.3
20260509005516 63 0.0 0.0 0.00 0.00 0.00 53 1011.4
20260509004538 63 0.0 0.0 0.00 0.00 0.00 53 1011.3
20260509003516 64 0.0 0.0 0.00 0.00 0.00 52 1011.1
20260509002516 65 0.0 0.0 0.00 0.00 0.00 51 1011.1
20260509001517 65 0.0 0.0 0.00 0.00 0.00 50 1011.0
20260509000516 66 0.0 0.0 0.00 0.00 0.00 47 1011.1
20260508235516 66 0.0 0.0 0.00 0.00 0.00 43 1011.0
20260508234517 67 0.0 0.0 0.00 0.00 0.00 41 1010.9
20260508233517 67 0.0 0.0 0.00 0.00 0.00 41 1010.9
20260508232516 68 0.0 0.0 0.00 0.00 0.00 41 1010.7
20260508231517 68 0.0 0.0 0.00 0.00 0.00 38 1010.6
20260508230517 68 0.0 0.0 0.00 0.00 0.00 38 1010.6
20260508225537 68 0.0 0.0 0.00 0.00 0.00 38 1010.6
20260508224518 69 0.0 1.0 0.00 0.00 0.00 38 1010.6
20260508223517 69 315 1.0 4.0 0.00 0.00 0.00 36 1010.7
20260508222517 69 315 1.0 4.0 0.00 0.00 0.00 35 1010.6
20260508221517 69 315 1.0 6.0 0.00 0.00 0.00 36 1010.5
20260508220558 69 338 1.0 3.0 0.00 0.00 0.00 35 1010.5
20260508215517 69 315 2.0 4.0 0.00 0.00 0.00 35 1010.7
20260508214516 69 315 2.0 4.0 0.00 0.00 0.00 34 1010.8
20260508213556 69 315 1.0 3.0 0.00 0.00 0.00 35 1010.8
20260508212516 69 315 2.0 6.0 0.00 0.00 0.00 36 1010.8
20260508211537 70 315 3.0 8.0 0.00 0.00 0.00 33 1010.9
20260508210517 70 293 2.0 5.0 0.00 0.00 0.00 33 1010.7
20260508205517 70 293 2.0 5.0 0.00 0.00 0.00 33 1010.8
20260508204516 70 293 2.0 7.0 0.00 0.00 0.00 33 1010.9
20260508203517 70 248 2.0 9.0 0.00 0.00 0.00 33 1010.9
20260508202537 70 225 2.0 8.0 0.00 0.00 0.00 33 1011.1
20260508201516 70 225 2.0 10.0 0.00 0.00 0.00 34 1011.1
20260508200516 71 225 3.0 8.0 0.00 0.00 0.00 33 1011.2
20260508195517 72 180 3.0 6.0 0.00 0.00 0.00 32 1011.2
20260508194517 70 270 2.0 6.0 0.00 0.00 0.00 34 1011.4
20260508193536 70 180 2.0 12.0 0.00 0.00 0.00 33 1011.4
20260508192536 71 248 3.0 11.0 0.00 0.00 0.00 31 1011.6
20260508191516 72 293 5.0 15.0 0.00 0.00 0.00 31 1011.8
20260508190516 73 293 3.0 9.0 0.00 0.00 0.00 33 1012.0
20260508185517 73 203 4.0 12.0 0.00 0.00 0.00 31 1012.2
20260508184516 72 315 4.0 8.0 0.00 0.00 0.00 32 1012.3
20260508183516 72 225 3.0 8.0 0.00 0.00 0.00 34 1012.2
20260508182516 71 180 5.0 9.0 0.00 0.00 0.00 32 1012.2
20260508181516 70 180 2.0 9.0 0.00 0.00 0.00 39 1012.5
20260508180516 70 225 5.0 12.0 0.00 0.00 0.00 32 1012.7
20260508175516 70 270 4.0 11.0 0.00 0.00 0.00 32 1012.9
20260508174516 70 225 4.0 10.0 0.00 0.00 0.00 32 1012.9